国际通讯卫星 904星 (INTELSAT 904 (IS-904))

导读 | 星芒AI

INTELSAT 904(IS-904)是由劳拉空间系统公司制造的通信卫星,于1996年由阿里安5号火箭发射。该卫星由欧洲宇航防务集团(EADS)运营,后由国际通信卫星组织(Intelsat)接管。IS-904最初部署在东经177度轨道位置,提供跨太平洋地区的C波段和Ku波段通信服务。由于推进剂耗尽,卫星于2011年退役,并被移至墓地轨道。IS-904在轨期间为多国提供了广播、电视和数据传输服务,是20世纪末至21世纪初重要的通信基础设施之一。

基本信息
目录编号:
27380
目录名称:
INTELSAT 904
国际标识:
2002-007A
轨道中心:
EARTH
卫星名称:
国际通讯卫星 904星
卫星全名:
国际通讯卫星 904星 (INTELSAT 904 (IS-904))
卫星状态:
在轨 (已飞行8696 天)
发射日期:
2002-02-23 UTC
国别 :
(ITSO)
星等 :
--
轨道信息
数据来源 国际轨道数据 AOE轨道数据
星历时间 2025-12-14T10:59:42+0800
1天前
查看轨道信息
2025-12-14T11:00:00+0800
1天前
查看轨道信息
半长轴 42164.532km 42164.476km
偏心率 0.0001552 0.0001491
轨道倾角 6.458° 6.458°
近地点辐角 234.089° 233.022°
升交点赤经 71.417° 71.418°
平近点角 150.966° 152.107°
近地点 35779.853km 35780.054km
远地点 35792.941km 35792.628km
周期 1436.087分钟 1436.084分钟
每日圈数 1.002725 1.002727
详细信息
卫星平台:
SSL 1300HL
平衡模式:
三轴稳定
覆盖范围:
全球
运营商:
国际卫星通信公司
运营商所在国:
美国
制造商(研发单位):
劳拉空间系统公司
制造商所在国:
美国
使用方式:
暂无
卫星简介
从1965年4月至1984年3月,国际通信卫星组织发射了5代、6种不同性能的卫星共计35颗,除6颗卫星因运载火箭和远地点发动机故障而发射失败外,其余29颗卫星均被送到了预定的静止轨道位置。1984年8月前后,国际通信卫星组织利用部署在大西洋、太平洋、印度洋上空的15颗国际通信卫星,为遍布世界各地170多个国家或地区提供电话、电传、电报、电视和数据传输等电信业务;该卫星仍在工作。
2D轨道图
3D轨道图
轨道高度分析图
轨道倾角分析图
轨道综合分析图
查看轨道综合分析图